GW3636 Weather Reports


time (UTC)temp
F
wind
direction
speed
knots
gust
knots
rain 1hr
in
rain 24hr
in
rain mn
in
humidity
%
barometer
mb
20260508171043 66 191 4.3 15.6 0.00 0.00 0.00 38 1014.7
20260508170545 65 179 9.6 15.6 0.00 0.00 0.00 38 1014.9
20260508170053 66 200 4.3 15.6 0.00 0.00 0.00 38 1015.0
20260508165543 65 236 7.8 15.6 0.00 0.00 0.00 40 1015.0
20260508165043 65 211 7.0 13.0 0.00 0.00 0.00 40 1015.1
20260508164601 65 229 7.0 14.8 0.00 0.00 0.00 41 1015.2
20260508164043 65 189 10.4 14.8 0.00 0.00 0.00 41 1015.3
20260508163547 65 186 7.0 13.9 0.00 0.00 0.00 41 1015.3
20260508163057 64 248 7.8 13.9 0.00 0.00 0.00 42 1015.5
20260508162550 64 208 3.5 17.4 0.00 0.00 0.00 43 1015.4
20260508162046 64 205 8.7 17.4 0.00 0.00 0.00 44 1015.5
20260508161600 63 198 6.1 14.8 0.00 0.00 0.00 43 1015.7
20260508161046 63 162 9.6 16.5 0.00 0.00 0.00 42 1015.8
20260508160549 63 211 10.4 16.5 0.00 0.00 0.00 43 1015.8
20260508160056 63 190 10.4 14.8 0.00 0.00 0.00 44 1015.9
20260508155543 63 253 10.4 14.8 0.00 0.00 0.00 44 1016.1
20260508155043 63 259 7.8 12.2 0.00 0.00 0.00 43 1016.2
20260508154556 63 244 7.8 14.8 0.00 0.00 0.00 42 1016.2
20260508154043 62 211 9.6 15.6 0.00 0.00 0.00 42 1016.2
20260508153543 62 241 10.4 15.6 0.00 0.00 0.00 39 1016.3
20260508153059 62 219 7.8 13.0 0.00 0.00 0.00 43 1016.2
20260508152542 62 186 7.0 10.4 0.00 0.00 0.00 43 1016.1
20260508152042 61 227 7.8 11.3 0.00 0.00 0.00 44 1016.1
20260508151556 61 261 6.1 14.8 0.00 0.00 0.00 44 1016.2
20260508151047 61 246 7.0 14.8 0.00 0.00 0.00 43 1016.3
20260508150547 61 228 7.8 14.8 0.00 0.00 0.00 43 1016.3
20260508150050 60 229 7.8 10.4 0.00 0.00 0.00 44 1016.2
20260508145544 60 244 7.0 15.6 0.00 0.00 0.00 44 1016.2
20260508145045 59 228 8.7 15.6 0.00 0.00 0.00 43 1016.3
20260508144550 59 252 9.6 14.8 0.00 0.00 0.00 43 1016.3
20260508144045 59 223 10.4 15.6 0.00 0.00 0.00 43 1016.3
20260508143546 59 259 8.7 15.6 0.00 0.00 0.00 43 1016.3
20260508143053 59 237 7.8 11.3 0.00 0.00 0.00 44 1016.3
20260508142546 59 203 4.3 8.7 0.00 0.00 0.00 47 1016.2
20260508142043 58 151 4.3 8.7 0.00 0.00 0.00 46 1016.2
20260508141554 58 202 4.3 10.4 0.00 0.00 0.00 48 1016.3
20260508141048 57 235 6.1 10.4 0.00 0.00 0.00 48 1016.3
20260508140548 57 186 6.1 10.4 0.00 0.00 0.00 48 1016.3
20260508140108 56 178 6.1 13.9 0.00 0.00 0.00 50 1016.3
20260508135548 56 167 7.8 13.9 0.00 0.00 0.00 50 1016.4
20260508135048 56 192 7.8 13.9 0.00 0.00 0.00 50 1016.3
20260508134606 55 202 7.8 13.9 0.00 0.00 0.00 51 1016.3
20260508134048 54 198 7.0 10.4 0.00 0.00 0.00 55 1016.3
20260508133548 54 201 6.1 10.4 0.00 0.00 0.00 57 1016.4
20260508133111 53 180 5.2 9.6 0.00 0.00 0.00 59 1016.4
20260508132547 52 165 5.2 8.7 0.00 0.00 0.00 62 1016.4
20260508132047 51 193 3.5 5.2 0.00 0.00 0.00 66 1016.4
20260508131603 51 196 0.9 4.3 0.00 0.00 0.00 69 1016.4
20260508131049 50 0 0.9 3.5 0.00 0.00 0.00 71 1016.4
20260508130553 49 164 0.0 2.6 0.00 0.00 0.00 74 1016.3
20260508125548 48 0 0.0 0.9 0.00 0.00 0.00 76 1016.4
20260508125049 47 0 0.0 0.9 0.00 0.00 0.00 77 1016.5
20260508124556 47 0 0.0 1.7 0.00 0.00 0.00 78 1016.5
20260508124048 46 0 0.0 1.7 0.00 0.00 0.00 81 1016.4
20260508123548 45 0 0.0 1.7 0.00 0.00 0.00 81 1016.5
20260508123104 45 0 0.0 0.0 0.00 0.00 0.00 82 1016.5
20260508122547 44 0 0.0 0.0 0.00 0.00 0.00 83 1016.5
20260508122047 43 0 0.0 0.0 0.00 0.00 0.00 83 1016.4
20260508121557 43 0 0.0 0.0 0.00 0.00 0.00 84 1016.4
20260508121046 42 0 0.0 0.0 0.00 0.00 0.00 86 1016.3
20260508120549 42 0 0.0 0.0 0.00 0.00 0.00 88 1016.4
20260508120100 41 0 0.0 0.0 0.00 0.00 0.00 89 1016.3
20260508115547 40 0 0.0 0.0 0.00 0.00 0.00 91 1016.3
20260508115047 40 0 0.0 0.0 0.00 0.00 0.00 92 1016.2
20260508114604 39 0 0.0 0.0 0.00 0.00 0.00 92 1016.2
20260508114048 39 0 0.0 0.0 0.00 0.00 0.00 92 1016.2
20260508113548 38 0 0.0 0.0 0.00 0.00 0.00 93 1016.2
20260508113102 38 0 0.0 0.0 0.00 0.00 0.00 92 1016.1
20260508112546 37 0 0.0 0.0 0.00 0.00 0.00 92 1016.2
20260508112047 37 0 0.0 0.9 0.00 0.00 0.00 92 1016.2
20260508111601 37 0 0.0 0.9 0.00 0.00 0.00 92 1016.2
20260508111049 37 0 0.0 1.7 0.00 0.00 0.00 92 1016.2
20260508110545 37 0 0.0 1.7 0.00 0.00 0.00 92 1016.1
20260508110100 37 119 0.0 1.7 0.00 0.00 0.00 92 1016.2
20260508105545 36 0 0.0 0.0 0.00 0.00 0.00 92 1016.1
20260508105046 36 0 0.0 0.0 0.00 0.00 0.00 92 1016.0
20260508104557 36 0 0.0 0.0 0.00 0.00 0.00 92 1016.0
20260508104046 36 0 0.0 0.0 0.00 0.00 0.00 92 1016.1
20260508103545 36 0 0.0 0.0 0.00 0.00 0.00 91 1016.0
20260508103054 36 0 0.0 0.0 0.00 0.00 0.00 91 1015.9
20260508102545 36 0 0.0 0.0 0.00 0.00 0.00 91 1015.8
20260508102046 36 0 0.0 0.0 0.00 0.00 0.00 91 1015.8
20260508101558 36 0 0.0 0.0 0.00 0.00 0.00 91 1015.7
20260508101046 36 0 0.0 0.0 0.00 0.00 0.00 91 1015.6
20260508100545 36 0 0.0 0.0 0.00 0.00 0.00 91 1015.6
20260508100056 36 0 0.0 0.0 0.00 0.00 0.00 91 1015.6
20260508095546 37 0 0.0 0.0 0.00 0.00 0.00 91 1015.6
20260508095046 37 0 0.0 0.0 0.00 0.00 0.00 91 1015.7
20260508094601 37 0 0.0 0.0 0.00 0.00 0.00 91 1015.6
20260508094045 37 0 0.0 0.0 0.00 0.00 0.00 91 1015.6
20260508093545 37 0 0.0 0.0 0.00 0.00 0.00 91 1015.7
20260508093055 37 0 0.0 0.0 0.00 0.00 0.00 91 1015.7
20260508092543 37 0 0.0 0.0 0.00 0.00 0.00 91 1015.6
20260508092045 37 0 0.0 0.0 0.00 0.00 0.00 91 1015.6
20260508091614 37 0 0.0 0.0 0.00 0.00 0.00 91 1015.6
20260508091043 37 0 0.0 0.0 0.00 0.00 0.00 91 1015.7
20260508090547 37 0 0.0 0.0 0.00 0.00 0.00 91 1015.6
20260508090106 37 0 0.0 0.0 0.00 0.00 0.00 91 1015.7
20260508085546 37 0 0.0 0.0 0.00 0.00 0.00 91 1015.5
20260508085049 37 0 0.0 0.0 0.00 0.00 0.00 91 1015.6
20260508084557 37 0 0.0 0.0 0.00 0.00 0.00 91 1015.5
20260508084046 37 0 0.0 0.0 0.00 0.00 0.00 91 1015.4
20260508083545 37 0 0.0 0.0 0.00 0.00 0.00 91 1015.5
20260508083054 37 0 0.0 0.0 0.00 0.00 0.00 91 1015.5
20260508082545 37 0 0.0 0.0 0.00 0.00 0.00 90 1015.4
20260508082047 37 0 0.0 0.0 0.00 0.00 0.00 90 1015.4
20260508081558 38 0 0.0 0.0 0.00 0.00 0.00 90 1015.5
20260508081046 38 0 0.0 0.0 0.00 0.00 0.00 90 1015.5
20260508080542 38 0 0.0 0.0 0.00 0.00 0.00 90 1015.4
20260508080054 38 0 0.0 0.0 0.00 0.00 0.00 90 1015.5
20260508075547 38 0 0.0 0.0 0.00 0.00 0.00 90 1015.5
20260508075048 38 0 0.0 0.0 0.00 0.00 0.00 90 1015.5
20260508074554 38 0 0.0 0.0 0.00 0.00 0.00 89 1015.4
20260508074046 38 0 0.0 2.6 0.00 0.00 0.00 89 1015.5
20260508073547 38 0 0.0 2.6 0.00 0.00 0.00 89 1015.5
20260508073055 38 188 0.9 2.6 0.00 0.00 0.00 89 1015.5
20260508072545 39 188 0.0 2.6 0.00 0.00 0.00 89 1015.5
20260508072045 39 0 0.0 2.6 0.00 0.00 0.00 89 1015.5
20260508071554 39 188 1.7 2.6 0.00 0.00 0.00 89 1015.5
20260508071045 39 188 0.0 1.7 0.00 0.00 0.00 89 1015.6
20260508070545 39 188 0.0 0.0 0.00 0.00 0.00 88 1015.6
20260508070100 39 0 0.0 0.0 0.00 0.00 0.00 88 1015.6
20260508065546 39 0 0.0 0.0 0.00 0.00 0.00 88 1015.6
20260508065046 39 0 0.0 0.0 0.00 0.00 0.00 88 1015.4
20260508064552 39 0 0.0 0.0 0.00 0.00 0.00 88 1015.5
20260508064047 39 0 0.0 0.0 0.00 0.00 0.00 88 1015.4
20260508063547 39 0 0.0 1.7 0.00 0.00 0.00 88 1015.5
20260508063123 39 0 0.0 2.6 0.00 0.00 0.00 88 1015.6
20260508062546 40 188 0.9 2.6 0.00 0.00 0.00 87 1015.6
20260508062047 40 188 0.0 2.6 0.00 0.00 0.00 87 1015.7
20260508061555 40 188 0.9 3.5 0.00 0.00 0.00 87 1015.7
20260508061046 40 188 1.7 3.5 0.00 0.00 0.00 87 1015.8
20260508060546 40 175 0.0 0.0 0.00 0.00 0.00 86 1015.8
20260508060056 40 0 0.0 1.7 0.00 0.00 0.00 86 1015.8
20260508055547 40 0 0.0 2.6 0.00 0.00 0.00 86 1015.8
20260508055047 40 175 0.9 5.2 0.00 0.00 0.00 85 1015.7
20260508054555 41 0 2.6 5.2 0.00 0.00 0.00 85 1015.8
20260508054046 41 200 2.6 4.3 0.00 0.00 0.00 85 1015.8
20260508053547 41 207 2.6 4.3 0.00 0.00 0.00 85 1015.7
20260508053059 41 178 1.7 3.5 0.00 0.00 0.00 85 1015.6
20260508052546 41 190 1.7 3.5 0.00 0.00 0.00 84 1015.7
20260508052045 41 197 1.7 3.5 0.00 0.00 0.00 84 1015.7
20260508051618 41 181 0.9 1.7 0.00 0.00 0.00 84 1015.7
20260508051046 41 0 0.0 3.5 0.00 0.00 0.00 83 1015.6
20260508050545 42 0 0.0 3.5 0.00 0.00 0.00 83 1015.5
20260508050058 42 186 2.6 3.5 0.00 0.00 0.00 83 1015.4
20260508045546 42 209 1.7 3.5 0.00 0.00 0.00 83 1015.4
20260508045048 42 194 1.7 3.5 0.00 0.00 0.00 83 1015.4
20260508044554 42 194 2.6 3.5 0.00 0.00 0.00 82 1015.5
20260508044046 42 194 1.7 3.5 0.00 0.00 0.00 82 1015.6
20260508043545 43 194 1.7 3.5 0.00 0.00 0.00 82 1015.5
20260508043056 43 194 1.7 2.6 0.00 0.00 0.00 81 1015.5
20260508042547 43 194 1.7 3.5 0.00 0.00 0.00 81 1015.6
20260508042047 43 186 1.7 3.5 0.00 0.00 0.00 80 1015.6
20260508041554 43 190 2.6 3.5 0.00 0.00 0.00 80 1015.6
20260508041047 43 190 2.6 3.5 0.00 0.00 0.00 79 1015.6
20260508040547 44 191 0.0 3.5 0.00 0.00 0.00 79 1015.6
20260508040056 44 0 0.9 4.3 0.00 0.00 0.00 78 1015.6
20260508035546 44 198 2.6 4.3 0.00 0.00 0.00 78 1015.6
20260508035046 44 200 2.6 3.5 0.00 0.00 0.00 78 1015.5
20260508034552 45 196 2.6 3.5 0.00 0.00 0.00 77 1015.5
20260508034046 45 184 1.7 3.5 0.00 0.00 0.00 75 1015.5
20260508033545 45 198 1.7 2.6 0.00 0.00 0.00 74 1015.5
20260508033055 46 188 1.7 2.6 0.00 0.00 0.00 75 1015.6
20260508032546 46 0 0.0 1.7 0.00 0.00 0.00 73 1015.6
20260508032046 46 0 0.0 2.6 0.00 0.00 0.00 73 1015.6
20260508031551 46 188 0.9 4.3 0.00 0.00 0.00 72 1015.7
20260508031045 47 185 1.7 4.3 0.00 0.00 0.00 71 1015.7
20260508030547 47 188 2.6 4.3 0.00 0.00 0.00 69 1015.6
20260508030051 48 197 1.7 3.5 0.00 0.00 0.00 67 1015.5
20260508025547 48 0 0.0 0.0 0.00 0.00 0.00 66 1015.5
20260508025046 49 0 0.0 0.0 0.00 0.00 0.00 65 1015.5
20260508024552 49 0 0.0 0.0 0.00 0.00 0.00 63 1015.5
20260508024047 50 0 0.0 0.0 0.00 0.00 0.00 61 1015.4
20260508023547 50 0 0.0 0.9 0.00 0.00 0.00 62 1015.4
20260508023052 50 0 0.0 0.9 0.00 0.00 0.00 59 1015.4
20260508022545 51 0 0.0 0.0 0.00 0.00 0.00 58 1015.3
20260508022048 51 0 0.0 0.9 0.00 0.00 0.00 58 1015.3
20260508021555 51 0 0.0 1.7 0.00 0.00 0.00 54 1015.2
20260508021045 51 21 0.0 1.7 0.00 0.00 0.00 54 1015.2
20260508020545 52 21 0.0 2.6 0.00 0.00 0.00 52 1015.1
20260508020104 52 21 0.0 3.5 0.00 0.00 0.00 49 1015.0
20260508015545 52 21 0.9 3.5 0.00 0.00 0.00 50 1015.0
20260508015045 53 30 1.7 4.3 0.00 0.00 0.00 50 1014.9
20260508014555 54 296 2.6 4.3 0.00 0.00 0.00 44 1014.9
20260508014045 54 292 2.6 3.5 0.00 0.00 0.00 44 1014.9
20260508013545 54 292 1.7 3.5 0.00 0.00 0.00 44 1014.7
20260508013055 54 292 1.7 3.5 0.00 0.00 0.00 44 1014.6
20260508012548 55 292 2.6 3.5 0.00 0.00 0.00 43 1014.5
20260508012047 55 291 2.6 3.5 0.00 0.00 0.00 42 1014.4
20260508011556 55 301 2.6 3.5 0.00 0.00 0.00 42 1014.3
20260508011046 55 309 2.6 3.5 0.00 0.00 0.00 41 1014.2
20260508010546 56 304 2.6 4.3 0.00 0.00 0.00 40 1014.2
20260508005545 56 293 2.6 4.3 0.00 0.00 0.00 40 1014.0
20260508005046 56 311 2.6 4.3 0.00 0.00 0.00 39 1014.1
20260508004555 56 300 2.6 5.2 0.00 0.00 0.00 38 1014.1
20260508004047 57 322 2.6 5.2 0.00 0.00 0.00 38 1014.1
20260508003545 57 315 3.5 6.1 0.00 0.00 0.00 38 1014.0
20260508003103 57 304 2.6 7.0 0.00 0.00 0.00 38 1014.1
20260508002548 57 308 3.5 7.0 0.00 0.00 0.00 37 1014.1
20260508002048 58 296 4.3 7.8 0.00 0.00 0.00 36 1014.0
20260508001556 58 299 5.2 10.4 0.00 0.00 0.00 36 1013.8
20260508001045 58 309 6.1 10.4 0.00 0.00 0.00 35 1013.7
20260508000547 58 320 5.2 9.6 0.00 0.00 0.00 35 1013.6
20260508000054 59 329 5.2 13.0 0.00 0.00 0.00 35 1013.7
20260507235548 59 331 8.7 13.0 0.00 0.00 0.00 33 1013.6
20260507235047 59 312 6.1 13.0 0.00 0.00 0.00 34 1013.6
20260507234557 59 322 6.1 13.0 0.00 0.00 0.00 34 1013.6
20260507234046 59 338 7.8 13.0 0.00 0.00 0.00 33 1013.5
20260507233546 60 334 5.2 11.3 0.00 0.00 0.00 35 1013.4
20260507233055 60 328 7.8 13.0 0.00 0.00 0.00 34 1013.3
20260507232545 60 338 7.0 13.0 0.00 0.00 0.00 34 1013.3
20260507232046 60 12 8.7 13.0 0.00 0.00 0.00 33 1013.3
20260507231553 60 333 9.6 12.2 0.00 0.00 0.00 32 1013.3
20260507231045 60 296 8.7 13.9 0.00 0.00 0.00 33 1013.2
20260507230546 61 311 9.6 13.9 0.00 0.00 0.00 32 1013.2
20260507230109 61 285 7.8 13.9 0.00 0.00 0.00 32 1013.1
20260507225545 61 319 9.6 15.6 0.00 0.00 0.00 31 1013.2
20260507225046 61 292 11.3 15.6 0.00 0.00 0.00 30 1013.2
20260507224555 61 289 7.0 11.3 0.00 0.00 0.00 33 1013.2
20260507224048 61 276 7.8 11.3 0.00 0.00 0.00 30 1013.2
20260507223547 61 293 8.7 11.3 0.00 0.00 0.00 30 1013.2
20260507223159 61 333 6.1 13.0 0.00 0.00 0.00 30 1013.2
20260507222547 61 296 8.7 14.8 0.00 0.00 0.00 30 1013.2
20260507222046 61 293 10.4 18.2 0.00 0.00 0.00 30 1013.2
20260507221557 61 316 10.4 16.5 0.00 0.00 0.00 30 1013.2
20260507221046 61 287 11.3 14.8 0.00 0.00 0.00 30 1013.1
20260507220545 62 280 8.7 15.6 0.00 0.00 0.00 30 1013.1
20260507220055 61 278 11.3 17.4 0.00 0.00 0.00 30 1013.0
20260507215546 62 283 12.2 17.4 0.00 0.00 0.00 30 1013.0
20260507215046 62 263 8.7 14.8 0.00 0.00 0.00 32 1012.9
20260507214558 62 315 8.7 17.4 0.00 0.00 0.00 34 1012.8
20260507214045 62 250 8.7 17.4 0.00 0.00 0.00 34 1012.8
20260507213547 62 252 10.4 15.6 0.00 0.00 0.00 35 1012.8
20260507213124 62 310 10.4 17.4 0.00 0.00 0.00 33 1012.8
20260507212545 62 287 9.6 17.4 0.00 0.00 0.00 34 1012.7
20260507212047 62 298 12.2 20.0 0.00 0.00 0.00 33 1012.8
20260507211553 62 277 11.3 19.1 0.00 0.00 0.00 32 1012.5
20260507211048 62 261 10.4 16.5 0.00 0.00 0.00 33 1012.5
20260507210549 62 334 9.6 20.9 0.00 0.00 0.00 34 1012.6
20260507205548 62 265 9.6 20.9 0.00 0.00 0.00 35 1012.7
20260507205053 62 323 7.8 17.4 0.00 0.00 0.00 36 1012.5
20260507204553 62 298 11.3 18.2 0.00 0.00 0.00 34 1012.5
20260507204046 62 304 12.2 18.2 0.00 0.00 0.00 34 1012.5
20260507203548 62 272 12.2 17.4 0.00 0.00 0.00 35 1012.3
20260507203054 62 316 8.7 19.1 0.00 0.00 0.00 36 1012.4
20260507202549 62 325 8.7 19.1 0.00 0.00 0.00 35 1012.4
20260507202050 62 308 10.4 18.2 0.00 0.00 0.00 35 1012.5
20260507201604 62 317 11.3 20.0 0.00 0.00 0.00 36 1012.4
20260507201047 62 300 13.9 20.0 0.00 0.00 0.00 36 1012.4
20260507200546 62 325 10.4 14.8 0.00 0.00 0.00 36 1012.4
20260507200108 62 323 7.8 13.9 0.00 0.00 0.00 36 1012.4
20260507195547 63 248 6.1 18.2 0.00 0.00 0.00 38 1012.4
20260507195047 62 276 12.2 18.2 0.00 0.00 0.00 36 1012.4
20260507194554 62 319 7.8 16.5 0.00 0.00 0.00 37 1012.5
20260507194050 62 294 9.6 15.6 0.00 0.00 0.00 37 1012.6
20260507193547 61 277 5.2 15.6 0.00 0.00 0.00 39 1012.5
20260507193055 62 248 10.4 15.6 0.00 0.00 0.00 38 1012.5
20260507192546 62 291 9.6 20.0 0.00 0.00 0.00 38 1012.5
20260507192046 62 223 10.4 20.0 0.00 0.00 0.00 38 1012.5
20260507191553 61 343 7.8 15.6 0.00 0.00 0.00 38 1012.7
20260507191046 61 341 10.4 13.9 0.00 0.00 0.00 38 1012.8
20260507190545 61 291 7.8 13.9 0.00 0.00 0.00 38 1012.8
20260507190053 61 324 4.3 13.9 0.00 0.00 0.00 41 1012.7
20260507185546 61 327 6.1 13.9 0.00 0.00 0.00 41 1012.8
20260507185049 62 306 10.4 13.0 0.00 0.00 0.00 41 1013.2
20260507184554 62 307 7.0 16.5 0.00 0.00 0.00 41 1013.1
20260507184047 62 303 9.6 16.5 0.00 0.00 0.00 39 1013.2
20260507183550 62 243 5.2 16.5 0.00 0.00 0.00 41 1012.9
20260507183056 62 294 6.1 13.0 0.00 0.00 0.00 42 1012.8
20260507182547 62 253 8.7 13.0 0.00 0.00 0.00 43 1013.1
20260507182047 62 342 4.3 14.8 0.00 0.00 0.00 42 1013.1
20260507181604 61 263 9.6 14.8 0.00 0.00 0.00 42 1013.3
20260507181049 61 223 9.6 14.8 0.00 0.00 0.00 40 1013.3
20260507180547 61 311 9.6 14.8 0.00 0.00 0.00 40 1013.3
20260507180056 61 297 7.8 21.7 0.00 0.00 0.00 41 1013.3
20260507175548 61 290 9.6 21.7 0.00 0.00 0.00 42 1013.3
20260507175046 60 331 6.1 22.6 0.00 0.00 0.00 43 1013.3
20260507174602 60 342 10.4 22.6 0.00 0.00 0.00 42 1013.4
20260507174045 61 285 5.2 15.6 0.00 0.00 0.00 42 1013.4
20260507173546 60 310 10.4 15.6 0.00 0.00 0.00 41 1013.5
20260507173100 60 293 9.6 14.8 0.00 0.00 0.00 40 1013.7
20260507172550 60 336 5.2 14.8 0.00 0.00 0.00 44 1013.6
20260507172047 60 207 9.6 14.8 0.00 0.00 0.00 42 1013.6
20260507171603 60 294 8.7 15.6 0.00 0.00 0.00 44 1013.6